Weather in Oktyabr'skiy

Russia / Udmurt Republic     56°33′49″N   53°58′21″E
temp.,
°C
wind,
m/s
gust,
m/s
humid.,
%
clouds,
%
prec.,
mm/h
press.,
hPa
HPBL,
m
21 april, wed
wed2101:00+2se22530 0.0 103213
04:000ese22560 0.0 103228
07:00+3se2749100 0.0 1032211
10:00+8sse473388 0.0 1031869
13:00+11sse6829100 0.0 10291320
16:00+12sse5932100 0.0 10281442
19:00+9sse41139100 0.0 1028625
22:00+8sse51244100 0.0 1027662
22 april, thu
thu2201:00+7s51152100 0.0 10271030
04:00+4sse61487100 0.6 10281036
07:00+3s51396100 0.5 1028826
10:00+4s51196100 0.6 1028731
13:00+3s51096100 1.3 1029616
16:00+3sse4995100 2.1 1029711
19:00+4sse31096100 0.4 1029773
22:00+4s4995100 0.4 1029644
23 april, fri
fri2301:00+4s3898100 0.0 1028506
04:00+3sse3798100 0.0 1029435
07:00+4sse3697100 0.0 1029317
10:00+5s3588100 0.0 1029473
13:00+8s3476100 0.0 1029704
16:00+10se236479 0.0 10281029
19:00+8se3679100 0.0 1028362
22:00+6e2582100 0.0 1027221
24 april, sat
sat2401:00+6ene3784100 0.0 1026271
04:00+4ene3893100 0.0 1024279
07:00+5ene3887100 0.0 1022407
10:00+5ene2594100 0.8 1020211
13:00+6ene3895100 1.1 1018433
16:00+6ene2396100 2.0 1017172
19:00+6ene2797100 1.1 1015292
22:00+6ene2698100 1.4 1013220
25 april, sun
sun2501:00+5e2498100 0.3 1012127
04:00+5se1297100 0.6 101169
07:00+5sse2498100 0.3 1011142
10:00+6se2596100 0.8 1010301
13:00+10s5774100 0.2 10091306
16:00+5sw61194100 1.6 1010765
19:00+5w7168458 0.0 10131125
22:00+3ssw27935 0.0 1014162